| time (UTC) | temp F | wind direction | speed knots | gust knots | rain 1hr in | rain 24hr in | rain mn in | humidity % | barometer mb |
| 20260504184904 | 80 | 123 | 7.8 | 9.6 | 0.00 | 0.00 | 0.00 | 86 | 1010.5 |
| 20260504184400 | 80 | 127 | 6.1 | 8.7 | 0.00 | 0.00 | 0.00 | 86 | 1010.5 |
| 20260504183856 | 80 | 135 | 5.2 | 7.8 | 0.00 | 0.00 | 0.00 | 86 | 1010.5 |
| 20260504183354 | 80 | 132 | 8.7 | 13.9 | 0.00 | 0.00 | 0.00 | 87 | 1010.5 |
| 20260504182852 | 80 | 132 | 7.0 | 10.4 | 0.00 | 0.00 | 0.00 | 87 | 1010.5 |
| 20260504182349 | 80 | 123 | 7.0 | 10.4 | 0.00 | 0.00 | 0.00 | 87 | 1010.5 |
| 20260504181845 | 81 | 131 | 7.0 | 11.3 | 0.00 | 0.00 | 0.00 | 87 | 1010.5 |
| 20260504181343 | 81 | 120 | 7.8 | 11.3 | 0.00 | 0.00 | 0.00 | 87 | 1010.5 |
| 20260504180842 | 81 | 114 | 8.7 | 11.3 | 0.00 | 0.00 | 0.00 | 87 | 1010.5 |
| 20260504180340 | 81 | 103 | 7.0 | 9.6 | 0.00 | 0.00 | 0.00 | 88 | 1010.5 |
| 20260504175838 | 81 | 119 | 7.0 | 10.4 | 0.00 | 0.00 | 0.00 | 88 | 1010.8 |
| 20260504175334 | 81 | 109 | 8.7 | 13.0 | 0.00 | 0.00 | 0.00 | 88 | 1010.5 |
| 20260504174832 | 81 | 113 | 6.1 | 7.0 | 0.00 | 0.00 | 0.00 | 88 | 1010.8 |
| 20260504174329 | 81 | 102 | 7.8 | 10.4 | 0.00 | 0.00 | 0.00 | 88 | 1010.8 |
| 20260504173826 | 81 | 99 | 7.0 | 9.6 | 0.00 | 0.00 | 0.00 | 88 | 1010.8 |
| 20260504173323 | 81 | 103 | 7.8 | 11.3 | 0.00 | 0.00 | 0.00 | 88 | 1010.8 |
| 20260504172820 | 81 | 100 | 7.8 | 11.3 | 0.00 | 0.00 | 0.00 | 88 | 1010.8 |
| 20260504172317 | 81 | 95 | 8.7 | 11.3 | 0.00 | 0.00 | 0.00 | 87 | 1010.8 |
| 20260504171812 | 81 | 93 | 7.8 | 10.4 | 0.00 | 0.00 | 0.00 | 88 | 1010.8 |
| 20260504171310 | 81 | 93 | 7.0 | 8.7 | 0.00 | 0.00 | 0.00 | 87 | 1010.8 |
| 20260504170807 | 81 | 86 | 6.1 | 10.4 | 0.00 | 0.00 | 0.00 | 87 | 1010.8 |
| 20260504170304 | 81 | 110 | 8.7 | 12.2 | 0.00 | 0.00 | 0.00 | 87 | 1010.8 |
| 20260504160222 | 82 | 105 | 7.0 | 9.6 | 0.00 | 0.00 | 0.00 | 84 | 1011.1 |
| 20260504150652 | 82 | 116 | 5.2 | 7.8 | 0.00 | 0.00 | 0.00 | 86 | 1011.5 |
| 20260504150149 | 82 | 117 | 7.8 | 11.3 | 0.00 | 0.00 | 0.00 | 86 | 1011.5 |
| 20260504141118 | 81 | 99 | 7.8 | 11.3 | 0.00 | 0.00 | 0.00 | 87 | 1011.8 |
| 20260504140615 | 81 | 92 | 7.8 | 10.4 | 0.00 | 0.00 | 0.00 | 87 | 1011.8 |
| 20260504140110 | 81 | 98 | 7.8 | 11.3 | 0.00 | 0.00 | 0.00 | 86 | 1011.8 |
| 20260504130539 | 81 | 86 | 8.7 | 12.2 | 0.00 | 0.06 | 0.06 | 88 | 1012.2 |
| 20260504110426 | 82 | 88 | 9.6 | 14.8 | 0.00 | 0.05 | 0.05 | 85 | 1011.5 |
| 20260504100349 | 81 | 89 | 8.7 | 11.3 | 0.00 | 0.05 | 0.05 | 88 | 1011.1 |
| 20260504081742 | 81 | 73 | 7.8 | 8.7 | 0.00 | 0.05 | 0.05 | 87 | 1010.1 |
| 20260504081238 | 81 | 75 | 7.8 | 9.6 | 0.00 | 0.05 | 0.05 | 88 | 1009.8 |
| 20260504080735 | 81 | 68 | 9.6 | 13.9 | 0.00 | 0.05 | 0.05 | 88 | 1009.8 |
| 20260504080231 | 81 | 65 | 12.2 | 14.8 | 0.00 | 0.05 | 0.05 | 89 | 1009.8 |
| 20260504070159 | 81 | 63 | 8.7 | 11.3 | 0.00 | 0.01 | 0.01 | 87 | 1009.4 |
| 20260504060120 | 84 | 80 | 13.0 | 17.4 | 0.00 | 0.01 | 0.01 | 80 | 1009.4 |
| 20260504050548 | 82 | 71 | 12.2 | 16.5 | 0.00 | 0.01 | 0.01 | 85 | 1009.8 |
| 20260504045541 | 85 | 92 | 10.4 | 14.8 | 0.00 | 0.00 | 0.00 | 80 | 1009.8 |
| 20260504045037 | 85 | 101 | 11.3 | 14.8 | 0.00 | 0.00 | 0.00 | 80 | 1009.8 |
| 20260504044535 | 85 | 85 | 9.6 | 12.2 | 0.00 | 0.00 | 0.00 | 79 | 1010.1 |
| 20260504044031 | 88 | 82 | 12.2 | 20.0 | 0.00 | 0.00 | 0.00 | 71 | 1009.8 |
| 20260504043528 | 87 | 71 | 13.9 | 18.2 | 0.00 | 0.00 | 0.00 | 72 | 1009.4 |
| 20260504043026 | 87 | 88 | 13.0 | 18.2 | 0.00 | 0.00 | 0.00 | 73 | 1009.8 |
| 20260504042523 | 86 | 76 | 9.6 | 13.0 | 0.00 | 0.00 | 0.00 | 74 | 1009.8 |
| 20260504042020 | 86 | 88 | 9.6 | 13.0 | 0.00 | 0.00 | 0.00 | 74 | 1010.1 |
| 20260504041515 | 86 | 77 | 9.6 | 14.8 | 0.00 | 0.00 | 0.00 | 74 | 1010.1 |
| 20260504041011 | 86 | 73 | 9.6 | 12.2 | 0.00 | 0.00 | 0.00 | 73 | 1010.1 |
| 20260504040509 | 87 | 75 | 13.0 | 14.8 | 0.00 | 0.00 | 0.00 | 73 | 1010.1 |
| 20260504040006 | 87 | 67 | 13.9 | 18.2 | 0.00 | 0.00 | 0.00 | 72 | 1009.8 |
| 20260504035503 | 87 | 63 | 10.4 | 13.9 | 0.00 | 0.00 | 0.00 | 72 | 1010.1 |
| 20260504034959 | 88 | 76 | 16.5 | 21.7 | 0.00 | 0.00 | 0.00 | 70 | 1010.1 |
| 20260504034457 | 87 | 76 | 11.3 | 14.8 | 0.00 | 0.00 | 0.00 | 70 | 1010.1 |
| 20260504033954 | 87 | 76 | 14.8 | 20.0 | 0.00 | 0.00 | 0.00 | 71 | 1010.5 |
| 20260504033451 | 87 | 95 | 12.2 | 14.8 | 0.00 | 0.00 | 0.00 | 72 | 1010.1 |
| 20260504032948 | 86 | 93 | 9.6 | 15.6 | 0.00 | 0.00 | 0.00 | 76 | 1010.5 |
| 20260504032445 | 86 | 83 | 11.3 | 14.8 | 0.00 | 0.00 | 0.00 | 74 | 1010.5 |
| 20260504031942 | 87 | 91 | 12.2 | 17.4 | 0.00 | 0.00 | 0.00 | 73 | 1010.5 |
| 20260504031439 | 87 | 96 | 9.6 | 13.0 | 0.00 | 0.00 | 0.00 | 72 | 1010.5 |
| 20260504030936 | 87 | 95 | 11.3 | 17.4 | 0.00 | 0.00 | 0.00 | 72 | 1010.5 |
| 20260504030433 | 87 | 87 | 10.4 | 14.8 | 0.00 | 0.00 | 0.00 | 72 | 1010.5 |
| 20260504025928 | 87 | 71 | 13.0 | 16.5 | 0.00 | 0.00 | 0.00 | 72 | 1010.8 |
| 20260504025426 | 87 | 60 | 15.6 | 23.5 | 0.00 | 0.00 | 0.00 | 72 | 1010.5 |
| 20260504024923 | 87 | 87 | 13.9 | 18.2 | 0.00 | 0.00 | 0.00 | 72 | 1010.8 |
| 20260504024420 | 87 | 69 | 7.8 | 11.3 | 0.00 | 0.00 | 0.00 | 74 | 1011.1 |
| 20260504023917 | 87 | 78 | 14.8 | 17.4 | 0.00 | 0.00 | 0.00 | 73 | 1010.8 |
| 20260504023413 | 87 | 80 | 13.0 | 16.5 | 0.00 | 0.00 | 0.00 | 72 | 1010.8 |
| 20260504022908 | 87 | 99 | 11.3 | 17.4 | 0.00 | 0.00 | 0.00 | 72 | 1011.1 |
| 20260504022405 | 87 | 80 | 12.2 | 18.2 | 0.00 | 0.00 | 0.00 | 73 | 1010.8 |
| 20260504021902 | 87 | 55 | 15.6 | 19.1 | 0.00 | 0.00 | 0.00 | 73 | 1010.8 |
| 20260504021359 | 87 | 69 | 17.4 | 24.3 | 0.00 | 0.00 | 0.00 | 72 | 1010.8 |
| 20260504020856 | 87 | 69 | 13.0 | 16.5 | 0.00 | 0.00 | 0.00 | 72 | 1011.1 |
| 20260504020353 | 87 | 65 | 13.0 | 17.4 | 0.00 | 0.00 | 0.00 | 72 | 1011.1 |
| 20260504015849 | 87 | 67 | 14.8 | 21.7 | 0.00 | 0.00 | 0.00 | 72 | 1011.1 |
| 20260504015345 | 87 | 68 | 17.4 | 22.6 | 0.00 | 0.00 | 0.00 | 72 | 1011.1 |
| 20260504014841 | 87 | 63 | 13.0 | 19.1 | 0.00 | 0.00 | 0.00 | 74 | 1011.5 |
| 20260504014337 | 87 | 76 | 16.5 | 19.1 | 0.00 | 0.00 | 0.00 | 73 | 1011.5 |
| 20260504013835 | 87 | 74 | 16.5 | 20.9 | 0.00 | 0.00 | 0.00 | 72 | 1011.1 |
| 20260504013333 | 87 | 85 | 12.2 | 15.6 | 0.00 | 0.00 | 0.00 | 72 | 1011.5 |
| 20260504012830 | 87 | 75 | 14.8 | 19.1 | 0.00 | 0.00 | 0.00 | 72 | 1011.5 |
| 20260504012327 | 87 | 64 | 17.4 | 21.7 | 0.00 | 0.00 | 0.00 | 72 | 1011.1 |
| 20260504011825 | 86 | 71 | 13.9 | 22.6 | 0.00 | 0.00 | 0.00 | 73 | 1011.5 |
| 20260504011321 | 86 | 63 | 14.8 | 17.4 | 0.00 | 0.00 | 0.00 | 74 | 1011.5 |
| 20260504010817 | 86 | 68 | 13.9 | 17.4 | 0.00 | 0.00 | 0.00 | 73 | 1011.5 |
| 20260504010312 | 86 | 63 | 13.9 | 19.1 | 0.00 | 0.00 | 0.00 | 73 | 1011.5 |
| 20260504005809 | 86 | 67 | 12.2 | 15.6 | 0.00 | 0.00 | 0.00 | 73 | 1011.8 |
| 20260504005306 | 86 | 74 | 14.8 | 19.1 | 0.00 | 0.00 | 0.00 | 72 | 1011.8 |
| 20260504004804 | 86 | 70 | 13.9 | 16.5 | 0.00 | 0.00 | 0.00 | 74 | 1011.8 |
| 20260504004301 | 86 | 74 | 13.0 | 16.5 | 0.00 | 0.00 | 0.00 | 77 | 1011.8 |
| 20260504003758 | 86 | 74 | 13.0 | 15.6 | 0.00 | 0.00 | 0.00 | 76 | 1011.8 |
| 20260504003255 | 85 | 80 | 10.4 | 14.8 | 0.00 | 0.00 | 0.00 | 77 | 1012.2 |
| 20260504002751 | 86 | 67 | 13.9 | 16.5 | 0.00 | 0.00 | 0.00 | 76 | 1012.2 |
| 20260504002248 | 86 | 90 | 13.0 | 17.4 | 0.00 | 0.00 | 0.00 | 75 | 1012.2 |
| 20260504001746 | 86 | 66 | 7.8 | 10.4 | 0.00 | 0.00 | 0.00 | 75 | 1012.2 |
| 20260504001243 | 86 | 73 | 11.3 | 13.0 | 0.00 | 0.00 | 0.00 | 74 | 1012.2 |
| 20260504000739 | 86 | 62 | 13.0 | 17.4 | 0.00 | 0.00 | 0.00 | 75 | 1011.8 |
| 20260504000236 | 86 | 49 | 10.4 | 14.8 | 0.00 | 0.00 | 0.00 | 75 | 1012.2 |
| 20260503235735 | 86 | 74 | 13.0 | 15.6 | 0.00 | 0.00 | 0.00 | 74 | 1012.2 |
| 20260503235231 | 86 | 75 | 8.7 | 13.0 | 0.00 | 0.00 | 0.00 | 75 | 1012.2 |
| 20260503234729 | 86 | 72 | 13.0 | 20.0 | 0.00 | 0.00 | 0.00 | 74 | 1012.2 |
| 20260503234227 | 86 | 57 | 9.6 | 16.5 | 0.00 | 0.00 | 0.00 | 75 | 1011.8 |
| 20260503233724 | 86 | 81 | 10.4 | 11.3 | 0.00 | 0.00 | 0.00 | 74 | 1011.8 |
| 20260503233219 | 86 | 90 | 8.7 | 13.0 | 0.00 | 0.00 | 0.00 | 74 | 1011.8 |
| 20260503232717 | 86 | 76 | 12.2 | 16.5 | 0.00 | 0.00 | 0.00 | 74 | 1011.8 |
| 20260503232214 | 86 | 56 | 12.2 | 15.6 | 0.00 | 0.00 | 0.00 | 75 | 1011.8 |
| 20260503231712 | 86 | 71 | 12.2 | 16.5 | 0.00 | 0.00 | 0.00 | 74 | 1011.8 |
| 20260503231208 | 86 | 79 | 9.6 | 14.8 | 0.00 | 0.00 | 0.00 | 76 | 1011.8 |
| 20260503230705 | 85 | 71 | 13.9 | 17.4 | 0.00 | 0.00 | 0.00 | 77 | 1011.8 |
| 20260503230202 | 85 | 78 | 9.6 | 12.2 | 0.00 | 0.00 | 0.00 | 77 | 1011.8 |
| 20260503225659 | 84 | 80 | 8.7 | 11.3 | 0.00 | 0.00 | 0.00 | 79 | 1012.2 |
| 20260503225159 | 84 | 74 | 8.7 | 12.2 | 0.00 | 0.00 | 0.00 | 79 | 1011.8 |
| 20260503224657 | 84 | 60 | 7.0 | 10.4 | 0.00 | 0.00 | 0.00 | 80 | 1011.8 |
| 20260503224155 | 83 | 79 | 7.0 | 10.4 | 0.00 | 0.00 | 0.00 | 81 | 1011.8 |
| 20260503223652 | 83 | 73 | 7.8 | 9.6 | 0.00 | 0.00 | 0.00 | 81 | 1011.8 |
| 20260503223149 | 83 | 84 | 7.0 | 9.6 | 0.00 | 0.00 | 0.00 | 81 | 1011.8 |
| 20260503222646 | 83 | 77 | 8.7 | 9.6 | 0.00 | 0.00 | 0.00 | 81 | 1011.5 |
| 20260503222143 | 83 | 76 | 8.7 | 11.3 | 0.00 | 0.00 | 0.00 | 82 | 1011.5 |
| 20260503221642 | 83 | 74 | 8.7 | 11.3 | 0.00 | 0.00 | 0.00 | 83 | 1011.5 |
| 20260503221139 | 83 | 71 | 9.6 | 12.2 | 0.00 | 0.00 | 0.00 | 82 | 1011.5 |
| 20260503220635 | 83 | 77 | 7.8 | 10.4 | 0.00 | 0.00 | 0.00 | 81 | 1011.5 |
| 20260503220132 | 84 | 73 | 11.3 | 13.9 | 0.00 | 0.00 | 0.00 | 80 | 1011.1 |
| 20260503215630 | 83 | 59 | 9.6 | 12.2 | 0.00 | 0.00 | 0.00 | 81 | 1011.1 |
| 20260503215126 | 83 | 65 | 7.0 | 8.7 | 0.00 | 0.00 | 0.00 | 82 | 1011.1 |
| 20260503214625 | 83 | 74 | 7.0 | 9.6 | 0.00 | 0.00 | 0.00 | 82 | 1011.1 |
| 20260503214120 | 83 | 74 | 7.8 | 10.4 | 0.00 | 0.00 | 0.00 | 82 | 1011.1 |
| 20260503213620 | 83 | 75 | 8.7 | 10.4 | 0.00 | 0.00 | 0.00 | 82 | 1011.1 |
| 20260503213116 | 82 | 67 | 8.7 | 10.4 | 0.00 | 0.00 | 0.00 | 84 | 1011.1 |
| 20260503212613 | 82 | 62 | 7.0 | 8.7 | 0.00 | 0.00 | 0.00 | 85 | 1011.1 |
| 20260503212111 | 81 | 71 | 5.2 | 6.1 | 0.00 | 0.00 | 0.00 | 85 | 1011.1 |
| 20260503211608 | 81 | 69 | 4.3 | 6.1 | 0.00 | 0.00 | 0.00 | 85 | 1011.1 |
| 20260503211103 | 81 | 76 | 4.3 | 6.1 | 0.00 | 0.00 | 0.00 | 85 | 1011.1 |
| 20260503210600 | 81 | 82 | 4.3 | 5.2 | 0.00 | 0.00 | 0.00 | 86 | 1011.1 |
| 20260503210056 | 81 | 67 | 6.1 | 7.0 | 0.00 | 0.00 | 0.00 | 86 | 1011.1 |
| 20260503205552 | 81 | 61 | 3.5 | 5.2 | 0.00 | 0.00 | 0.00 | 86 | 1011.1 |
| 20260503205049 | 81 | 62 | 3.5 | 4.3 | 0.00 | 0.00 | 0.00 | 87 | 1010.8 |
| 20260503204546 | 80 | 63 | 4.3 | 5.2 | 0.00 | 0.00 | 0.00 | 87 | 1010.8 |
| 20260503204043 | 80 | 75 | 5.2 | 6.1 | 0.00 | 0.00 | 0.00 | 87 | 1010.8 |
| 20260503203540 | 80 | 70 | 6.1 | 7.0 | 0.00 | 0.00 | 0.00 | 87 | 1010.8 |
| 20260503203037 | 80 | 64 | 3.5 | 6.1 | 0.00 | 0.00 | 0.00 | 87 | 1010.8 |
| 20260503202535 | 80 | 64 | 4.3 | 5.2 | 0.00 | 0.00 | 0.00 | 87 | 1010.8 |
| 20260503202033 | 80 | 67 | 4.3 | 4.3 | 0.00 | 0.00 | 0.00 | 88 | 1010.5 |
| 20260503201531 | 80 | 71 | 4.3 | 5.2 | 0.00 | 0.00 | 0.00 | 88 | 1010.8 |
| 20260503201028 | 80 | 60 | 3.5 | 4.3 | 0.00 | 0.00 | 0.00 | 88 | 1010.8 |
| 20260503200524 | 80 | 63 | 3.5 | 4.3 | 0.00 | 0.00 | 0.00 | 88 | 1010.8 |
| 20260503200021 | 80 | 62 | 3.5 | 4.3 | 0.00 | 0.00 | 0.00 | 88 | 1010.8 |
| 20260503195518 | 80 | 73 | 3.5 | 4.3 | 0.00 | 0.00 | 0.00 | 87 | 1010.5 |
| 20260503195015 | 80 | 73 | 3.5 | 4.3 | 0.00 | 0.00 | 0.00 | 87 | 1010.8 |
| 20260503194512 | 80 | 96 | 3.5 | 3.5 | 0.00 | 0.00 | 0.00 | 87 | 1010.8 |
| 20260503194011 | 80 | 71 | 3.5 | 3.5 | 0.00 | 0.00 | 0.00 | 86 | 1010.8 |
| 20260503193508 | 80 | 67 | 4.3 | 5.2 | 0.00 | 0.00 | 0.00 | 86 | 1010.8 |
| 20260503193004 | 80 | 64 | 4.3 | 5.2 | 0.00 | 0.00 | 0.00 | 86 | 1010.8 |
| 20260503192500 | 80 | 74 | 3.5 | 5.2 | 0.00 | 0.00 | 0.00 | 86 | 1010.8 |
| 20260503191955 | 80 | 66 | 6.1 | 7.8 | 0.00 | 0.00 | 0.00 | 87 | 1010.5 |
| 20260503191453 | 80 | 68 | 5.2 | 6.1 | 0.00 | 0.00 | 0.00 | 87 | 1010.5 |
| 20260503190949 | 80 | 75 | 5.2 | 7.0 | 0.00 | 0.00 | 0.00 | 88 | 1010.5 |
| 20260503190447 | 80 | 73 | 5.2 | 7.0 | 0.00 | 0.00 | 0.00 | 89 | 1010.5 |
| 20260503185944 | 80 | 87 | 3.5 | 4.3 | 0.00 | 0.00 | 0.00 | 89 | 1010.5 |
| 20260503185440 | 80 | 66 | 4.3 | 5.2 | 0.00 | 0.00 | 0.00 | 89 | 1010.5 |